Regional Weather Roundup
Issued by NWS New Orleans/Baton Rouge, LA

Home | Current Version | Previous Version | Text Only | Print | Product List | Glossary On
Versions: 1 2 3 4 5 6 7 8 9 10 11 12 13 14 15 16 17 18 19 20 21 22 23 24 25 26 27 28 29 30 31 32 33 34 35 36 37 38 39 40 41 42 43 44 45 46 47 48 49 50
354
ASUS44 KLIX 231713
RWRLIX
NEW ORLEANS REGIONAL WEATHER ROUNDUP
NATIONAL WEATHER SERVICE NEW ORLEANS LA
1200 PM CDT THU MAR 23 2017

NOTE: "FAIR" INDICATES FEW OR NO CLOUDS BELOW 12,000 FEET WITH NO
      SIGNIFICANT WEATHER AND/OR OBSTRUCTIONS TO VISIBILITY.
      SKY/WX - SKY CONDITION AND SIGNIFICANT WEATHER.
      TMP - AIR TEMPERATURE.     DP    - DEWPOINT TEMPERATURE.
      RH  - RELATIVE HUMIDITY.   PRES  - PRESSURE.
      HI  - HEAT INDEX.          WCI   - WIND CHILL INDEX.

*  THESE STATIONS ARE NOT NWS OR FAA STATIONS AND ARE NOT UNDER
   NWS QUALITY CONTROL.

LAZ038-040-048-061>063-065>067-069-231800-
SOUTHEAST LOUISIANA

CITY           SKY/WX    TMP DP  RH WIND       PRES   REMARKS
N.O. INTL ARPT MOSUNNY   80  60  50 SE13      30.21F
N.O. LAKEFRONT SUNNY     78  63  59 E15       30.22F
N.O. DOWNTOWN*   N/A     81  58  45 SE10      30.22F
RESERVE*         N/A     81  64  55 E5        30.21F
SLIDELL        SUNNY     79  55  43 SE13      30.22F
BATON ROUGE    SUNNY     79  60  52 VRB6      30.21F
BOOTHVILLE     SUNNY     75  65  70 E10       30.23S
BELLE CHASSE   SUNNY     77  63  61 SE13      30.21F
BOGALUSA*        N/A     81  52  36 SE8       30.24F
GALLIANO*      SUNNY     77  65  66 SE8       30.21S
NEW ROADS*       N/A     76  61  60 E5        30.21F
GONZALES*        N/A     79  63  58 CALM      30.20F
HAMMOND*       SUNNY     79  54  41 SE9       30.22F
HOUMA*         SUNNY     79  68  69 SE6       30.21F
PORT FOURCHON* SUNNY     73  66  78 SE10      30.21S

$$

MSZ070-080>082-231800-
SOUTHERN MISSISSIPPI

CITY           SKY/WX    TMP DP  RH WIND       PRES   REMARKS
MCCOMB         SUNNY     78  52  40 SE9       30.22F
GULFPORT       SUNNY     74  60  61 E16       30.24F
BILOXI         MOSUNNY   75  61  61 SE14      30.24F
PASCAGOULA     SUNNY     75  60  59 SE10G21   30.25F
STENNIS ARPT*  SUNNY     73  52  46 MISG      30.25S

$$

COASTAL OBSERVATIONS
LAKE AND NEARSHORE STATIONS

STATION/POSITION TIME  TEMP    WIND        PRES    WAVE
                       AIR SEA DIR/SP/G            HT/PER
                 (UTC) (F)     (DEG/KT/KT) (MB)    (FT/S)
PASCAGOULA       1648   72      90/ 14/ 19 1024.0
WAVELAND YACHT   1648   69 71  120/ 11/ 13 1023.9
GRAND ISLE       1648   72 71  130/  7/ 11 1023.0
SOUTHWEST PASS   1648          100/  4/  6   N/A
NEW CANAL        1648   78 72   80/  7/ 14 1022.3
SHELL BEACH      1648   73 74  110/ 14/ 17 1023.7

OFFSHORE STATIONS

STATION/POSITION TIME  TEMP    WIND        PRES    WAVE
                       AIR SEA DIR/SP/G            HT/PER
                 (UTC) (F)     (DEG/KT/KT) (MB)    (FT/S)
64 S DAUPHIN ISL 1650   71 73   80/ 12/ 14 1023.5    3/ 4

$$





USA.gov is the U.S. government's official web portal to all federal, state and local government web resources and services.